Regional Weather Roundup
Issued by NWS Sterling, VA

Home | Current Version | Previous Version | Text Only | Print | Product List | Glossary On
Versions: 1 2 3 4 5 6 7 8 9 10 11 12 13 14 15 16 17 18 19 20 21 22 23 24 25 26 27
000
ASUS41 KLWX 291211
RWRLWX

REGIONAL WEATHER ROUNDUP
NATIONAL WEATHER SERVICE BALTIMORE MD/WASHINGTON DC
800 AM EDT THU JUN 29 2017

Note: "FAIR" indicates few or no clouds below 12,000 feet
with no significant weather and/or obstructions to visibility.
 TC=TEMPERATURE CELSIUS

 * =Non NWS site. Station does not report precipitation (e.g. rain,
    snow, etc.), thunder, or fog.

DCZ001-MDZ009-015-VAZ040>042-051-053>054-291300-
WASHINGTON METRO

CITY           SKY/WX    TMP DP  RH WIND       PRES   REMARKS
WASHINGTON NAT PTSUNNY   70  62  76 S10       30.17S
DULLES         PTSUNNY   67  55  65 S9        30.16S
ANDREWS AFB    SUNNY     69  58  67 SW12      30.16S
FT BELVOIR     SUNNY     71  60  67 CALM      30.16F
QUANTICO       PTSUNNY   69  61  75 S13       30.18S
COLLEGE PARK*  SUNNY     70  59  67 S6        30.15F
LEESBURG*      MOSUNNY   66  61  82 SW3       30.16S
MANASSAS*      CLOUDY    68  58  70 S3        30.16F
GAITHERSBURG*  SUNNY     69  56  62 VRB6      30.17S

$$

MDZ006>007-011-014-291300-
BALTIMORE METRO

CITY           SKY/WX    TMP DP  RH WIND       PRES   REMARKS
BWI AIRPORT    PTSUNNY   68  60  75 VRB5      30.15S
MD SCIENCE CTR   N/A     71  59  65 MISG      30.16S
MARTIN STATE   PTSUNNY   72  63  73 S6        30.18S
ANNAPOLIS      SUNNY     68  61  78 S6        30.16F
FORT MEADE*    SUNNY     63  59  88 CALM      30.18S

$$

MDZ012-015-019>023-291300-
MARYLAND EASTERN SHORE

CITY           SKY/WX    TMP DP  RH WIND       PRES   REMARKS
OCEAN CITY     MOSUNNY   70  65  84 VRB5      30.22R
SALISBURY      CLOUDY    67  64  90 S8        30.21R
BAY BRIDGE AP* SUNNY     73  63  68 S10       30.17S
CAMBRIDGE*     SUNNY     72  64  78 S8        30.19S

$$

MDZ017>025-291300-
SOUTHERN MARYLAND

CITY           SKY/WX    TMP DP  RH WIND       PRES   REMARKS
PATUXENT RIVER PTSUNNY   70  63  78 SW10      30.18S
ST INIGOES     PTSUNNY   70  64  81 SW9       30.19R
LEONARDTOWN*   CLOUDY    68  61  77 SW6       30.20S

$$

MDZ003>005-291300-
NORTH CENTRAL MARYLAND

CITY           SKY/WX    TMP DP  RH WIND       PRES   REMARKS
FREDERICK*     SUNNY     64  57  77 SW6       30.18S
HAGERSTOWN APT CLOUDY    70  55  59 S12       30.13F
WESTMINSTER*   CLOUDY    70  57  64 S6        30.15S

$$

MDZ501>502-291300-
WESTERN MARYLAND

CITY           SKY/WX    TMP DP  RH WIND       PRES   REMARKS
OAKLAND*       CLOUDY    63  54  72 SW12G17   30.06R
CUMBERLAND*    CLOUDY    59  55  88 CALM      30.18S

$$

VAZ025>031-291300-
SHENANDOAH VALLEY

CITY           SKY/WX    TMP DP  RH WIND       PRES   REMARKS
WINCHESTER*    CLOUDY    66  54  63 SW7       30.15R
FRONT ROYAL*   CLOUDY    68  55  64 S9        30.15R
LURAY*         CLOUDY    64  57  77 S5        30.17S
NEW MARKET*    CLOUDY    66  55  69 W6        30.17S
STAUNTON*      CLOUDY    59  55  87 CALM      30.22R
WAYNESBORO*    CLOUDY    62  57  83 CALM      30.21R

$$

WVZ021-048>050-054>055-291300-
EASTERN WEST VIRGINIA PANHANDLE

CITY           SKY/WX    TMP DP  RH WIND       PRES   REMARKS
MARTINSBURG    CLOUDY    66  56  70 S5        30.13S
PETERSBURG*    CLOUDY    60  56  89 CALM      30.16S

$$

VAZ036>039-050-291300-
CENTRAL FOOTHILLS

CITY           SKY/WX    TMP DP  RH WIND       PRES   REMARKS
CHARLOTTESVILL CLOUDY    65  59  81 CALM      30.18R
CULPEPER*      MOSUNNY   66  59  77 CALM      30.17F
ORANGE*        CLOUDY    61  55  82 CALM      30.18S
GORDONSVILLE*  CLOUDY    62  58  87 CALM      30.18R
WARRENTON*     MOSUNNY   69  55  60 SW5       30.16S

$$

VAZ055>057-291300-
NORTH AND CENTRAL PIEDMONT

CITY           SKY/WX    TMP DP  RH WIND       PRES   REMARKS
FREDERICKSBRG* SUNNY     66  59  80 S6        30.18S
STAFFORD*      CLOUDY    64  61  89 SE5       30.22R

$$

NCZ024-NYZ072-PAZ021-071-VAZ022-071-291300-
OTHER REGIONAL OBSERVATIONS

CITY           SKY/WX    TMP DP  RH WIND       PRES   REMARKS
NEW YORK CITY  CLOUDY    70  58  65 VRB5      30.18F
PHILADELPHIA   CLOUDY    70  59  68 S12       30.17S
PITTSBURGH     PTSUNNY   65  56  72 S5        30.08S
ROANOKE        PTSUNNY   66  59  78 CALM      30.22S
RICHMOND       CLOUDY    69  61  75 SW7       30.22R
RALEIGH        CLOUDY    68  62  81 W3        30.23R

$$

ANZ530>537-291300-
MARINE OBSERVATIONS

STATION/POSITION TIME  TEMP    WIND        PRES
                       AIR SEA DIR/SP/G
                 (UTC) (F)     (DEG/KT/KT) (MB)
THOMAS PT LIGHT  1200   70 75  210/ 11/ 12   N/A
BALT KEY BRIDGE  1148   69     210/  5/  8 1021.0R
COVE POINT       1148   70     230/ 12/ 17 1022.5F
LEWISETTA        1148   68 78  240/  9/ 11 1022.5R
SOLOMONS ISLAND  1148   71 78  210/ 10/ 14   N/A
PINEY POINT      1148          240/ 11/ 15   N/A

$$





USA.gov is the U.S. government's official web portal to all federal, state and local government web resources and services.